N829QS LPFR-LEBL

Flight info

Callsign N829QS
Flight time 1h 21m
Altitude 19000
Route TUPIX2V TUPIX Y135 NAPES/N0487F340 N747 TOSTO DCT OLPOS DCT BEGOX DCT VLC L34 CASIM DCT MATEX MATEX2W
Aircraft C700/M-SBDGHM1RWXY/LB2

Departure

Time 2026-05-04 16:27
Airport Faro - Gago Coutinho International Airport (LPFR)

Arrival

Time 2026-05-04 17:48
Airport Josep Tarradellas Barcelona-El Prat Airport (LEBL)
Time Latitude Longitude Altitude Speed Heading
2026-05-04 16:18 37.01759 -7.97079 15 ft 0 kts 159°
2026-05-04 16:19 37.01759 -7.97080 15 ft 1 kts 159°
2026-05-04 16:19 37.01805 -7.97106 15 ft 4 kts 143°
2026-05-04 16:20 37.01825 -7.97136 15 ft 0 kts 99°
2026-05-04 16:23 37.01749 -7.96894 15 ft 11 kts 193°
2026-05-04 16:24 37.01600 -7.96399 15 ft 17 kts 100°
2026-05-04 16:25 37.01548 -7.96037 14 ft 25 kts 98°
2026-05-04 16:26 37.01438 -7.95842 14 ft 7 kts 189°
2026-05-04 16:26 37.01515 -7.97022 102 ft 142 kts 277°
2026-05-04 16:27 37.01929 -7.99960 2177 ft 181 kts 285°
2026-05-04 16:28 37.02649 -8.04890 6206 ft 204 kts 282°
2026-05-04 16:28 37.02006 -8.09788 10190 ft 216 kts 221°
2026-05-04 16:29 36.97615 -8.05806 14585 ft 274 kts 83°
2026-05-04 16:30 36.98822 -7.98615 17463 ft 290 kts 78°
2026-05-04 16:31 36.99533 -7.93537 19035 ft 309 kts 77°
2026-05-04 16:31 37.00929 -7.84218 19063 ft 417 kts 78°
2026-05-04 16:32 37.02666 -7.72728 19730 ft 445 kts 77°
2026-05-04 16:33 37.03711 -7.65508 23232 ft 415 kts 76°
2026-05-04 16:33 37.04776 -7.58231 24746 ft 430 kts 77°
2026-05-04 16:34 37.05860 -7.50746 26245 ft 443 kts 77°
2026-05-04 16:34 37.06415 -7.46926 26975 ft 449 kts 77°
2026-05-04 16:35 37.08301 -7.36594 28923 ft 460 kts 63°
2026-05-04 16:35 37.12119 -7.25357 30743 ft 477 kts 61°
2026-05-04 16:36 37.13431 -7.21506 31306 ft 482 kts 61°
2026-05-04 16:36 37.16090 -7.13672 32308 ft 493 kts 61°
2026-05-04 16:37 37.18799 -7.05669 33341 ft 501 kts 61°
2026-05-04 16:37 37.19978 -7.01537 33855 ft 508 kts 70°
2026-05-04 16:37 37.21628 -6.92686 34004 ft 534 kts 73°
2026-05-04 16:38 37.23389 -6.83402 33994 ft 555 kts 73°
2026-05-04 16:39 37.27730 -6.60002 33993 ft 549 kts 73°
2026-05-04 16:40 37.31173 -6.41236 33996 ft 552 kts 75°
2026-05-04 16:41 37.35396 -6.17677 33998 ft 552 kts 77°
2026-05-04 16:43 37.39593 -5.94139 33984 ft 551 kts 77°
2026-05-04 16:43 37.42100 -5.80083 33984 ft 551 kts 76°
2026-05-04 16:44 37.47693 -5.62212 34001 ft 553 kts 64°
2026-05-04 16:45 37.50796 -5.53317 34003 ft 554 kts 64°
2026-05-04 16:46 37.58476 -5.31222 33996 ft 550 kts 64°
2026-05-04 16:47 37.64622 -5.13439 33983 ft 550 kts 64°
2026-05-04 16:48 37.70715 -4.95711 33965 ft 550 kts 64°
2026-05-04 16:49 37.76810 -4.77869 33958 ft 556 kts 65°
2026-05-04 16:50 37.82869 -4.59930 33963 ft 552 kts 66°
2026-05-04 16:51 37.87424 -4.46460 33995 ft 559 kts 66°
2026-05-04 16:52 37.93423 -4.28559 33968 ft 552 kts 66°
2026-05-04 16:53 37.97914 -4.15074 33964 ft 554 kts 66°
2026-05-04 16:54 38.03896 -3.97038 33967 ft 555 kts 66°
2026-05-04 16:55 38.12801 -3.69984 33954 ft 549 kts 66°
2026-05-04 16:56 38.17896 -3.46820 33971 ft 550 kts 78°
2026-05-04 16:57 38.20297 -3.32498 33961 ft 554 kts 78°
2026-05-04 16:58 38.23469 -3.13388 33964 ft 550 kts 78°
2026-05-04 17:00 38.28158 -2.84749 33975 ft 555 kts 79°
2026-05-04 17:01 38.32025 -2.60774 33983 ft 552 kts 79°
2026-05-04 17:02 38.35079 -2.41608 33978 ft 552 kts 79°
2026-05-04 17:02 38.36120 -2.31931 33976 ft 550 kts 91°
2026-05-04 17:03 38.36158 -2.27107 33972 ft 551 kts 93°
2026-05-04 17:03 38.36292 -2.12343 33969 ft 557 kts 93°
2026-05-04 17:04 38.38351 -1.92960 33769 ft 546 kts 69°
2026-05-04 17:05 38.41917 -1.84717 33940 ft 536 kts 52°
2026-05-04 17:05 38.46631 -1.77030 33951 ft 562 kts 50°
2026-05-04 17:06 38.53827 -1.65253 33934 ft 561 kts 50°
2026-05-04 17:07 38.60223 -1.54771 33934 ft 558 kts 50°
2026-05-04 17:07 38.65771 -1.45649 33942 ft 560 kts 50°
2026-05-04 17:08 38.72905 -1.33875 33931 ft 555 kts 50°
2026-05-04 17:09 38.77644 -1.26042 33934 ft 556 kts 50°
2026-05-04 17:09 38.82358 -1.18225 33929 ft 559 kts 50°
2026-05-04 17:10 38.94245 -0.98430 33921 ft 554 kts 51°
2026-05-04 17:11 38.98944 -0.90576 33907 ft 555 kts 51°
2026-05-04 17:12 39.06241 -0.79098 33896 ft 553 kts 40°
2026-05-04 17:12 39.12450 -0.73369 33913 ft 544 kts 24°
2026-05-04 17:13 39.22455 -0.66462 33891 ft 542 kts 24°
2026-05-04 17:14 39.35715 -0.57263 33901 ft 541 kts 24°
2026-05-04 17:15 39.45621 -0.50363 33918 ft 540 kts 24°
2026-05-04 17:16 39.58443 -0.40096 33944 ft 542 kts 28°
2026-05-04 17:17 39.71126 -0.29521 33912 ft 541 kts 29°
2026-05-04 17:18 39.83795 -0.18914 33909 ft 544 kts 29°
2026-05-04 17:19 39.96446 -0.08273 33915 ft 540 kts 29°
2026-05-04 17:20 40.09084 0.02406 33956 ft 544 kts 29°
2026-05-04 17:20 40.18612 0.10490 33963 ft 544 kts 30°
2026-05-04 17:21 40.25248 0.15039 33733 ft 535 kts 15°
2026-05-04 17:21 40.32262 0.17721 32361 ft 514 kts 11°
2026-05-04 17:22 40.35669 0.19011 31692 ft 503 kts 11°
2026-05-04 17:22 40.38961 0.20264 31047 ft 497 kts 11°
2026-05-04 17:23 40.48764 0.24998 29004 ft 499 kts 27°
2026-05-04 17:23 40.50708 0.26683 28558 ft 490 kts 33°
2026-05-04 17:23 40.55456 0.32707 27503 ft 461 kts 51°
2026-05-04 17:24 40.57231 0.36102 27114 ft 454 kts 59°
2026-05-04 17:24 40.60694 0.47835 25909 ft 464 kts 75°
2026-05-04 17:25 40.61653 0.51883 25495 ft 459 kts 75°
2026-05-04 17:25 40.63523 0.59821 24699 ft 448 kts 75°
2026-05-04 17:26 40.65339 0.67599 23915 ft 441 kts 75°
2026-05-04 17:26 40.68021 0.79095 22701 ft 434 kts 75°
2026-05-04 17:27 40.69784 0.86696 21951 ft 434 kts 75°
2026-05-04 17:27 40.71535 0.94260 21190 ft 427 kts 75°
2026-05-04 17:28 40.73240 1.01652 20452 ft 420 kts 75°
2026-05-04 17:29 40.75750 1.12582 19365 ft 411 kts 75°
2026-05-04 17:29 40.78214 1.23375 18294 ft 408 kts 75°
2026-05-04 17:30 40.80640 1.34019 17190 ft 397 kts 75°
2026-05-04 17:31 40.82199 1.40915 16502 ft 391 kts 75°
2026-05-04 17:31 40.84510 1.51153 15481 ft 384 kts 75°
2026-05-04 17:32 40.86026 1.57899 14806 ft 382 kts 76°
2026-05-04 17:33 40.87725 1.68065 13811 ft 374 kts 85°
2026-05-04 17:33 40.88092 1.71452 13463 ft 371 kts 84°
2026-05-04 17:34 40.89169 1.81405 12501 ft 362 kts 84°
2026-05-04 17:34 40.89519 1.84699 12184 ft 362 kts 84°
2026-05-04 17:35 40.90565 1.94520 11238 ft 355 kts 85°
2026-05-04 17:35 40.91218 2.00680 10904 ft 316 kts 85°
2026-05-04 17:35 40.91519 2.03503 10897 ft 306 kts 84°
2026-05-04 17:36 40.92137 2.06227 10898 ft 316 kts 68°
2026-05-04 17:36 40.93286 2.08749 10898 ft 326 kts 52°
2026-05-04 17:36 40.94884 2.10820 10901 ft 326 kts 36°
2026-05-04 17:36 40.96801 2.12379 10802 ft 316 kts 27°
2026-05-04 17:37 40.98727 2.13813 10117 ft 319 kts 27°
2026-05-04 17:37 41.00645 2.15251 9589 ft 315 kts 27°
2026-05-04 17:37 41.02542 2.16680 9006 ft 311 kts 27°
2026-05-04 17:37 41.04411 2.18090 8447 ft 308 kts 27°
2026-05-04 17:38 41.06261 2.19483 7912 ft 304 kts 27°
2026-05-04 17:38 41.08090 2.20863 7383 ft 301 kts 27°
2026-05-04 17:38 41.09898 2.22227 6849 ft 297 kts 27°
2026-05-04 17:38 41.11686 2.23577 6353 ft 294 kts 28°
2026-05-04 17:39 41.15205 2.26236 5285 ft 288 kts 28°
2026-05-04 17:39 41.16919 2.27598 4760 ft 286 kts 35°
2026-05-04 17:39 41.18337 2.29430 4191 ft 284 kts 52°
2026-05-04 17:40 41.19428 2.31596 3646 ft 281 kts 59°
2026-05-04 17:40 41.20465 2.33725 3518 ft 265 kts 58°
2026-05-04 17:40 41.21440 2.35699 3481 ft 248 kts 58°
2026-05-04 17:40 41.22612 2.37315 3077 ft 251 kts 30°
2026-05-04 17:41 41.24257 2.37948 2831 ft 244 kts
2026-05-04 17:41 41.25940 2.38161 2515 ft 243 kts
2026-05-04 17:41 41.27627 2.38329 2257 ft 240 kts
2026-05-04 17:41 41.29250 2.38484 2233 ft 230 kts
2026-05-04 17:42 41.30860 2.38639 2230 ft 235 kts
2026-05-04 17:42 41.32505 2.38677 2226 ft 238 kts 348°
2026-05-04 17:42 41.34013 2.37814 2238 ft 236 kts 325°
2026-05-04 17:42 41.35371 2.36620 2246 ft 233 kts 322°
2026-05-04 17:43 41.36153 2.35908 2241 ft 233 kts 322°
2026-05-04 17:43 41.37486 2.34683 2241 ft 232 kts 321°
2026-05-04 17:43 41.38524 2.33124 2225 ft 223 kts 290°
2026-05-04 17:43 41.38657 2.31133 2225 ft 216 kts 254°
2026-05-04 17:44 41.37995 2.29377 2244 ft 213 kts 236°
2026-05-04 17:44 41.37176 2.27714 2242 ft 217 kts 236°
2026-05-04 17:44 41.36314 2.26084 2239 ft 213 kts 231°
2026-05-04 17:44 41.35477 2.24557 2232 ft 202 kts 239°
2026-05-04 17:45 41.34859 2.22903 2092 ft 198 kts 244°
2026-05-04 17:45 41.34321 2.21336 1863 ft 177 kts 245°
2026-05-04 17:45 41.33860 2.19965 1673 ft 142 kts 245°
2026-05-04 17:45 41.33462 2.18832 1426 ft 125 kts 244°
2026-05-04 17:46 41.33098 2.17757 1277 ft 133 kts 244°
2026-05-04 17:46 41.32702 2.16609 1108 ft 138 kts 244°
2026-05-04 17:46 41.32314 2.15471 920 ft 133 kts 244°
2026-05-04 17:46 41.31935 2.14362 735 ft 132 kts 244°
2026-05-04 17:47 41.31550 2.13241 550 ft 134 kts 245°
2026-05-04 17:47 41.31160 2.12095 370 ft 138 kts 246°
2026-05-04 17:47 41.30756 2.10921 172 ft 141 kts 245°
2026-05-04 17:47 41.30356 2.09747 34 ft 129 kts 245°
2026-05-04 17:48 41.30047 2.08837 14 ft 82 kts 246°
2026-05-04 17:48 41.29931 2.08441 19 ft 28 kts 258°
2026-05-04 17:48 41.29933 2.08206 14 ft 27 kts 275°
2026-05-04 17:48 41.29950 2.08051 13 ft 11 kts 304°
2026-05-04 17:49 41.30019 2.08002 12 ft 13 kts 334°
2026-05-04 17:49 41.30089 2.07959 12 ft 12 kts 335°
2026-05-04 17:49 41.30149 2.08007 13 ft 14 kts 64°
2026-05-04 17:49 41.30196 2.08146 13 ft 19 kts 65°
2026-05-04 17:50 41.30259 2.08324 13 ft 23 kts 65°
2026-05-04 17:50 41.30259 2.08458 12 ft 14 kts 136°
2026-05-04 17:50 41.30280 2.08580 12 ft 7 kts 66°
2026-05-04 17:50 41.30287 2.08601 12 ft 4 kts 65°
2026-05-04 17:51 41.30308 2.08667 12 ft 11 kts 68°
2026-05-04 17:51 41.30351 2.08787 12 ft 18 kts 66°
2026-05-04 17:51 41.30403 2.08941 12 ft 12 kts 62°
2026-05-04 17:51 41.30477 2.08994 12 ft 13 kts 20°
2026-05-04 17:52 41.30575 2.09038 12 ft 14 kts 17°
2026-05-04 17:52 41.30623 2.08992 15 ft 10 kts 289°
2026-05-04 17:52 41.30641 2.08911 16 ft 9 kts 325°
2026-05-04 17:52 41.30701 2.08872 17 ft 8 kts 324°
2026-05-04 17:53 41.30732 2.08853 18 ft 1 kts 30°
2026-05-04 17:53 41.30743 2.08877 17 ft 5 kts 65°
2026-05-04 17:53 41.30745 2.08883 17 ft 0 kts 65°